FW8967 Weather Reports


time (UTC)temp
C
wind
direction
speed
KPH
gust
KPH
rain 1hr
cm
rain 24hr
cm
rain mn
cm
humidity
%
barometer
mb
20260906110056 20 0 0.0 0.0 0.00 0.00 0.00 87 1013.8
20260906104554 20 0 0.0 0.0 0.00 0.00 0.00 87 1013.8
20260906103101 20 0 0.0 0.0 0.00 0.00 0.00 88 1013.8
20260906101559 20 0 0.0 0.0 0.00 0.00 0.00 88 1013.7
20260906100055 20 0 0.0 0.0 0.00 0.00 0.00 88 1013.7
20260906094614 20 0 0.0 0.0 0.00 0.00 0.00 88 1013.7
20260906093101 20 0 0.0 0.0 0.00 0.00 0.00 89 1013.5
20260906091559 20 0 0.0 0.0 0.00 0.00 0.00 90 1013.5
20260906090058 19 0 0.0 0.0 0.00 0.00 0.00 90 1013.1
20260906084602 19 0 0.0 0.0 0.00 0.00 0.00 90 1012.9
20260906083059 19 0 0.0 0.0 0.00 0.00 0.00 91 1012.8
20260906081600 18 0 0.0 0.0 0.00 0.00 0.00 91 1012.8
20260906080059 18 0 0.0 0.0 0.00 0.00 0.00 90 1012.8
20260906074558 18 0 0.0 0.0 0.00 0.00 0.00 89 1012.7
20260906073103 18 0 0.0 0.0 0.00 0.00 0.00 89 1012.6
20260906071600 18 0 0.0 0.0 0.00 0.00 0.00 89 1012.7
20260906070057 19 0 0.0 0.0 0.00 0.00 0.00 88 1012.9
20260906064607 19 0 0.0 0.0 0.00 0.00 0.00 88 1012.9
20260906063100 19 0 0.0 0.0 0.00 0.00 0.00 88 1013.2
20260906061602 19 0 0.0 0.0 0.00 0.00 0.00 87 1013.0
20260906060103 20 0 0.0 0.0 0.00 0.00 0.00 86 1013.2
20260906054603 20 0 0.0 0.0 0.00 0.00 0.00 86 1013.2
20260906053101 20 0 0.0 0.0 0.00 0.00 0.00 86 1013.3
20260906051600 20 0 0.0 0.0 0.00 0.00 0.00 86 1013.2
20260906050059 20 0 0.0 0.0 0.00 0.00 0.00 85 1013.2
20260906044603 20 0 0.0 0.0 0.00 0.00 0.00 83 1013.3
20260906043059 20 0 0.0 0.0 0.00 0.00 0.00 83 1013.0
20260906041558 20 0 0.0 0.0 0.00 0.00 0.00 82 1013.2
20260906040056 21 0 0.0 0.0 0.00 0.00 0.00 82 1013.2
20260906034602 21 0 0.0 0.0 0.00 0.00 0.00 80 1013.4
20260906033105 21 0 0.0 0.0 0.00 0.00 0.00 80 1013.6
20260906031558 21 0 0.0 0.0 0.00 0.00 0.00 79 1013.5
20260906024600 22 0 0.0 0.0 0.00 0.00 0.00 77 1013.2
20260906023058 22 0 0.0 0.0 0.00 0.00 0.00 76 1013.1
20260906021600 22 0 0.0 0.0 0.00 0.00 0.00 74 1012.9
20260906020101 23 0 0.0 0.0 0.00 0.00 0.00 73 1012.8
20260906014605 23 0 0.0 0.0 0.00 0.00 0.00 72 1012.5
20260906013107 23 0 0.0 0.0 0.00 0.00 0.00 70 1012.5
20260906011618 25 0 0.0 0.0 0.00 0.00 0.00 68 1012.4
20260906004557 26 0 0.0 0.0 0.00 0.00 0.00 61 1012.1
20260906003053 26 0 0.0 0.0 0.00 0.00 0.00 61 1011.9
20260906001603 27 0 0.0 0.0 0.00 0.00 0.00 57 1011.9
20260906000100 27 0 0.0 0.0 0.00 0.00 0.00 56 1011.6
20260905234556 27 0 0.0 4.8 0.00 0.00 0.00 55 1011.4
20260905233134 27 0 0.0 1.6 0.00 0.00 0.00 55 1011.5
20260905231600 29 0 0.0 8.0 0.00 0.00 0.00 53 1011.5
20260905224623 30 0 0.0 6.4 0.00 0.00 0.00 52 1011.5
20260905223107 31 268 1.6 6.4 0.00 0.00 0.00 47 1011.5
20260905221557 32 0 0.0 4.8 0.00 0.00 0.00 48 1011.4
20260905220054 32 0 0.0 4.8 0.00 0.00 0.00 52 1011.3
20260905214601 32 0 0.0 4.8 0.00 0.00 0.00 47 1011.2
20260905213100 32 0 0.0 3.2 0.00 0.00 0.00 50 1011.1
20260905211558 31 0 0.0 1.6 0.00 0.00 0.00 49 1010.9
20260905210108 31 174 1.6 6.4 0.00 0.00 0.00 49 1010.9
20260905204600 31 0 0.0 4.8 0.00 0.00 0.00 49 1011.0
20260905203101 31 284 0.0 14.5 0.00 0.00 0.00 46 1010.9
20260905201608 32 317 1.6 8.0 0.00 0.00 0.00 45 1011.0
20260905200104 33 299 1.6 11.3 0.00 0.00 0.00 42 1010.8
20260905194600 32 80 1.6 16.1 0.00 0.00 0.00 44 1010.7
20260905193057 32 0 0.0 4.8 0.00 0.00 0.00 50 1010.7
20260905191557 32 295 0.0 8.0 0.00 0.00 0.00 48 1011.0
20260905190137 31 290 0.0 9.7 0.00 0.00 0.00 52 1011.2
20260905184622 29 262 1.6 16.1 0.00 0.00 0.00 55 1011.9
20260905183059 29 285 3.2 17.7 0.00 0.00 0.00 55 1012.3
20260905181555 29 291 4.8 12.9 0.00 0.00 0.00 56 1012.5
20260905180053 29 65 1.6 8.0 0.00 0.00 0.00 55 1012.4
20260905174601 29 279 0.0 8.0 0.00 0.00 0.00 55 1012.4
20260905173058 30 0 0.0 4.8 0.00 0.00 0.00 55 1012.1
20260905171557 29 107 1.6 6.4 0.00 0.00 0.00 55 1012.5
20260905170120 30 276 0.0 6.4 0.00 0.00 0.00 53 1013.0
20260905164602 30 0 0.0 3.2 0.00 0.00 0.00 54 1013.3
20260905163106 29 228 0.0 6.4 0.00 0.00 0.00 56 1013.5
20260905161604 29 0 0.0 11.3 0.00 0.00 0.00 56 1013.7
20260905160105 29 230 0.0 6.4 0.00 0.00 0.00 59 1014.1
20260905154603 29 0 1.6 6.4 0.00 0.00 0.00 63 1014.2
20260905153058 28 0 0.0 3.2 0.00 0.00 0.00 62 1014.3
20260905151603 28 0 1.6 17.7 0.00 0.00 0.00 63 1014.4
20260905150101 29 122 1.6 6.4 0.00 0.00 0.00 61 1014.0
20260905144559 29 0 0.0 6.4 0.00 0.00 0.00 62 1013.7
20260905143100 29 0 1.6 8.0 0.00 0.00 0.00 60 1013.7
20260905141619 30 154 0.0 6.4 0.00 0.00 0.00 58 1013.7
20260905134600 29 0 0.0 1.6 0.00 0.00 0.00 63 1013.6
20260905133057 28 0 1.6 6.4 0.00 0.00 0.00 65 1013.4
20260905131619 27 0 0.0 4.8 0.00 0.00 0.00 66 1013.4
20260905130108 26 0 0.0 3.2 0.00 0.00 0.00 71 1013.3
20260905124601 25 0 0.0 0.0 0.00 0.00 0.00 78 1013.3
20260905123108 22 0 0.0 0.0 0.00 0.00 0.00 83 1013.4
20260905121603 20 0 0.0 0.0 0.00 0.00 0.00 87 1013.5
20260905120100 20 0 0.0 0.0 0.00 0.00 0.00 89 1013.7
20260905114557 19 0 0.0 0.0 0.00 0.00 0.00 90 1013.3
20260905113101 19 0 0.0 0.0 0.00 0.00 0.00 89 1013.3
20260905111558 19 0 0.0 0.0 0.00 0.00 0.00 90 1013.3